Regional Weather Roundup
Issued by NWS Little Rock, AR

Home | Current Version | Previous Version | Graphics & Text | Print | Product List | Glossary On
Versions: 1 2 3 4 5 6 7 8 9 10 11 12 13 14 15 16 17 18 19 20 21 22 23 24 25 26 27 28 29 30 31 32 33 34 35 36 37 38 39 40 41 42 43 44 45 46 47 48 49 50
000
ASUS44 KLZK 210905
RWRLZK

WEATHER ROUNDUP FOR ARKANSAS
NATIONAL WEATHER SERVICE LITTLE ROCK AR
400 AM CDT TUE OCT 21 2014

NOTE: "FAIR" INDICATES FEW OR NO CLOUDS BELOW 12,000 FEET WITH NO
SIGNIFICANT WEATHER AND/OR OBSTRUCTIONS TO VISIBILITY.

ARZ001-003-010-029-211000-
NORTHWEST ARKANSAS

CITY           SKY/WX    TMP DP  RH WIND       PRES   REMARKS
FAYETTEVILLE   FOG       49  49 100 CALM      30.09S VSB 1/4
FORT SMITH     PTCLDY    57  55  93 NE5       30.06F FOG
HARRISON       CLEAR     54  54 100 NW3       30.09S FOG
BENTONVILLE    CLOUDY    52  48  87 CALM      30.09S VSB 1/4
ROGERS         CLEAR     50  49  96 CALM      30.09F
SILOAM SPGS    CLOUDY    48  43  81 CALM      30.10S VSB 1/2
HIGHFILL       FOG       48  48 100 N5        30.09R VSB 1/4
$$

ARZ004-005-016-211000-
NORTH CENTRAL ARKANSAS

CITY           SKY/WX    TMP DP  RH WIND       PRES   REMARKS
BATESVILLE     CLEAR     57  54  88 W3        30.06R
FLIPPIN          N/A     52  46  82 CALM      30.08S VSB 3/4
MTN HOME       FOG       53  53 100 CALM      30.07S VSB 3/4
$$

ARZ040-041-211000-
WEST CENTRAL ARKANSAS

CITY           SKY/WX    TMP DP  RH WIND       PRES   REMARKS
MENA             N/A     54  52  94 CALM      30.07S
MOUNT IDA      FOG       55  54  96 CALM      30.04S VSB 1/2
$$

ARZ009-017-025-026-028-211000-
NORTHEAST ARKANSAS

CITY           SKY/WX    TMP DP  RH WIND       PRES   REMARKS
CORNING        FAIR      52  52 100 NW3       30.06S
JONESBORO      CLEAR     59  55  87 N3        30.04R
NEWPORT        CLEAR     56  56 100 W5        30.06R
WALNUT RIDGE   CLEAR     54  50  87 N9        30.05S
BLYTHEVILLE    CLEAR     51  50  96 N6        30.04R FOG
$$

ARZ022-023-033-042-044-211000-
CENTRAL ARKANSAS

CITY           SKY/WX    TMP DP  RH WIND       PRES   REMARKS
LITTLE ROCK    CLEAR     55  52  89 SW3       30.05S
N LITTLE ROCK    N/A     59  58  98 NW6       30.05S
JACKSONVILLE   CLEAR     52  51  97 W5        30.04S
SEARCY         CLEAR     52  52 100 CALM      30.06R FOG
HOT SPRINGS    LGT RAIN  57  56  96 CALM      30.06S
RUSSELLVILLE   CLEAR     53  51  93 CALM      30.05F FOG
$$

ARZ036-211000-
EAST ARKANSAS

CITY           SKY/WX    TMP DP  RH WIND       PRES   REMARKS
WEST MEMPHIS   CLEAR     53  53 100 CALM      30.02S
$$

ARZ050-053-066-070-073-211000-
SOUTHWEST ARKANSAS

CITY           SKY/WX    TMP DP  RH WIND       PRES   REMARKS
ARKADELPHIA    CLOUDY    57  57 100 CALM      30.06S FOG
CAMDEN         MOCLDY    54  50  87 CALM      30.05S
TEXARKANA      CLEAR     56  54  93 NE3       30.04S
EL DORADO      CLEAR     53  52  96 CALM      30.04F
DE QUEEN       FOG       53  53 100 CALM      30.04S VSB 1/4
$$

ARZ056-057-069-211000-
SOUTHEAST ARKANSAS

CITY           SKY/WX    TMP DP  RH WIND       PRES   REMARKS
PINE BLUFF     PTCLDY    59  56  89 W3        30.04F
STUTTGART      CLEAR     54  52  94 W5        30.05R
MONTICELLO     PTCLDY    55  53  93 CALM      30.04S

$$





USA.gov is the U.S. government's official web portal to all federal, state and local government web resources and services.